N1IJV-10 Weather Reports


time (UTC)temp
F
wind
direction
speed
knots
gust
knots
rain 1hr
in
rain 24hr
in
rain mn
in
humidity
%
barometer
mb
20260904172456 84 135 2.6 7.8 0.00 0.00 0.00 71 1012.8
20260904171950 84 130 4.3 5.2 0.00 0.00 0.00 71 1013.1
20260904171445 84 134 2.6 2.6 0.00 0.00 0.00 71 1013.3
20260904170941 84 141 4.3 6.1 0.00 0.00 0.00 70 1013.4
20260904170441 84 138 1.7 4.3 0.00 0.00 0.00 71 1013.4
20260904165937 83 135 5.2 7.0 0.00 0.00 0.00 72 1013.4
20260904165436 83 136 4.3 8.7 0.00 0.00 0.00 73 1013.4
20260904164935 83 136 3.5 7.8 0.00 0.00 0.00 73 1013.4
20260904164430 83 133 1.7 6.1 0.00 0.00 0.00 74 1013.2
20260904163926 83 121 3.5 7.0 0.00 0.00 0.00 75 1013.3
20260904163426 83 131 2.6 6.1 0.00 0.00 0.00 75 1013.5
20260904162920 83 125 2.6 7.0 0.00 0.00 0.00 76 1013.7
20260904162415 84 137 2.6 6.1 0.00 0.00 0.00 75 1013.6
20260904161911 84 135 2.6 5.2 0.00 0.00 0.00 76 1013.4
20260904161406 84 131 0.9 5.2 0.00 0.00 0.00 77 1013.3
20260904160902 85 133 2.6 7.8 0.00 0.00 0.00 76 1013.0
20260904160357 84 137 2.6 7.0 0.00 0.00 0.00 77 1013.0
20260904155852 84 138 4.3 11.3 0.00 0.00 0.00 78 1013.0
20260904155346 83 140 1.7 2.6 0.00 0.00 0.00 82 1012.8
20260904154845 83 140 1.7 4.3 0.00 0.00 0.00 81 1013.0
20260904154339 85 139 0.9 5.2 0.00 0.00 0.00 79 1012.9
20260904153835 86 139 1.7 4.3 0.00 0.00 0.00 77 1012.6
20260904153330 85 144 0.9 5.2 0.00 0.00 0.00 77 1012.3
20260904152827 85 136 2.6 7.0 0.00 0.00 0.00 77 1012.2
20260904152321 85 139 2.6 7.0 0.00 0.00 0.00 77 1012.3
20260904151816 86 143 2.6 8.7 0.00 0.00 0.00 77 1012.2
20260904151315 86 140 3.5 5.2 0.00 0.00 0.00 76 1012.3
20260904150811 85 138 0.9 2.6 0.00 0.00 0.00 77 1012.3
20260904150306 85 140 0.9 2.6 0.00 0.00 0.00 79 1012.1
20260904145804 84 138 1.7 4.3 0.00 0.00 0.00 79 1011.9
20260904145300 84 142 4.3 5.2 0.00 0.00 0.00 80 1011.7
20260904144755 84 138 2.6 5.2 0.00 0.00 0.00 80 1011.8
20260904144251 84 142 0.9 5.2 0.00 0.00 0.00 81 1011.9
20260904143747 84 139 2.6 2.6 0.00 0.00 0.00 80 1011.7
20260904143243 85 139 1.7 2.6 0.00 0.00 0.00 79 1011.6
20260904142739 85 138 2.6 7.0 0.00 0.00 0.00 78 1011.5
20260904142235 85 138 0.9 2.6 0.00 0.00 0.00 75 1011.4
20260904141735 84 139 0.0 0.9 0.00 0.00 0.00 76 1011.7
20260904141230 84 139 0.9 0.9 0.00 0.00 0.00 77 1011.9
20260904140726 85 139 0.9 2.6 0.00 0.00 0.00 77 1011.7
20260904140221 84 140 0.0 1.7 0.00 0.00 0.00 75 1011.7
20260904135719 84 137 0.0 0.0 0.00 0.00 0.00 79 1011.7
20260904135215 83 139 0.9 1.7 0.00 0.00 0.00 80 1011.4
20260904134711 82 138 0.0 0.0 0.00 0.00 0.00 81 1011.5
20260904134210 82 138 0.0 0.9 0.00 0.00 0.00 80 1011.4
20260904133705 82 138 0.0 0.0 0.00 0.00 0.00 81 1011.4
20260904133202 82 138 0.0 0.9 0.00 0.00 0.00 82 1011.4
20260904132701 81 139 0.9 1.7 0.00 0.00 0.00 82 1011.3
20260904132156 81 138 0.0 0.9 0.00 0.00 0.00 83 1011.4
20260904131655 81 138 0.0 0.0 0.00 0.00 0.00 83 1011.4
20260904131151 80 138 0.0 0.9 0.00 0.00 0.00 84 1011.4
20260904130645 80 139 0.9 1.7 0.00 0.00 0.00 84 1011.2
20260904130145 80 138 0.9 1.7 0.00 0.00 0.00 85 1011.1
20260904125641 79 138 0.0 0.9 0.00 0.00 0.00 85 1011.3
20260904125136 78 138 0.0 0.0 0.00 0.00 0.00 87 1010.9
20260904124631 77 138 0.0 0.9 0.00 0.00 0.00 87 1010.8
20260904124127 77 139 0.0 0.0 0.00 0.00 0.00 90 1010.8
20260904123627 77 137 0.0 0.0 0.00 0.00 0.00 90 1010.5
20260904123123 76 138 0.0 0.0 0.00 0.00 0.00 90 1010.6
20260904122617 76 137 0.0 0.0 0.00 0.00 0.00 91 1010.2
20260904122112 76 137 0.0 0.0 0.00 0.00 0.00 91 1010.1
20260904121608 76 138 0.0 0.0 0.00 0.00 0.00 91 1010.1
20260904121103 76 138 0.0 0.0 0.00 0.00 0.00 91 1010.1
20260904120559 76 137 0.0 0.0 0.00 0.00 0.00 90 1010.0
20260904120055 76 137 0.0 0.0 0.00 0.00 0.00 90 1009.8
20260904115550 76 136 0.0 0.0 0.00 0.00 0.00 89 1009.9
20260904115044 76 136 0.0 0.0 0.00 0.00 0.00 89 1010.0
20260904114539 77 135 0.0 0.9 0.00 0.00 0.00 88 1009.8
20260904114039 77 135 0.0 0.9 0.00 0.00 0.00 88 1009.8
20260904113533 77 135 0.0 0.9 0.00 0.00 0.00 88 1009.9
20260904113033 76 135 0.9 1.7 0.00 0.00 0.00 88 1009.7
20260904112528 76 136 0.0 0.9 0.00 0.00 0.00 89 1009.6
20260904112024 77 136 0.0 0.0 0.00 0.00 0.00 88 1009.6
20260904111519 77 136 0.9 1.7 0.00 0.00 0.00 88 1009.5
20260904111015 77 135 0.0 0.0 0.00 0.00 0.00 87 1009.7
20260904110509 78 133 0.9 1.7 0.00 0.00 0.00 87 1009.3
20260904110004 78 135 0.9 0.9 0.00 0.00 0.00 86 1009.4
20260904105458 78 131 1.7 1.7 0.00 0.00 0.00 86 1009.4
20260904104953 78 135 0.9 2.6 0.00 0.00 0.00 86 1009.2
20260904104448 78 134 2.6 2.6 0.00 0.00 0.00 86 1009.3
20260904103945 78 134 0.9 2.6 0.00 0.00 0.00 85 1009.2
20260904103440 78 135 2.6 4.3 0.00 0.00 0.00 85 1009.2
20260904102936 78 132 2.6 4.3 0.00 0.00 0.00 86 1009.3
20260904102432 78 132 1.7 2.6 0.00 0.00 0.00 86 1009.4
20260904101927 78 134 2.6 2.6 0.00 0.00 0.00 86 1009.1
20260904101424 78 140 1.7 4.3 0.00 0.00 0.00 86 1009.3
20260904100919 78 140 3.5 4.3 0.00 0.00 0.00 87 1009.2
20260904100414 78 140 3.5 4.3 0.00 0.00 0.00 88 1009.4
20260904095909 78 142 2.6 5.2 0.00 0.00 0.00 88 1009.3
20260904095404 78 144 1.7 4.3 0.00 0.00 0.00 89 1009.1
20260904094859 78 134 1.7 4.3 0.00 0.00 0.00 90 1009.4
20260904094354 77 138 2.6 2.6 0.00 0.00 0.00 91 1009.3
20260904093850 77 134 0.9 0.9 0.00 0.00 0.00 92 1009.5
20260904093350 76 135 0.0 0.9 0.00 0.00 0.00 94 1009.6
20260904092845 76 135 0.0 0.9 0.00 0.00 0.00 95 1009.7
20260904092342 76 136 0.0 0.0 0.00 0.00 0.00 95 1010.2
20260904091838 76 135 0.0 0.0 0.00 0.00 0.00 95 1010.0
20260904091333 76 135 0.0 0.0 0.00 0.00 0.00 95 1010.0
20260904090827 76 135 0.0 0.0 0.00 0.00 0.00 95 1010.1
20260904090324 77 136 0.0 0.0 0.00 0.00 0.00 94 1010.0
20260904085819 77 136 0.0 0.0 0.00 0.00 0.00 94 1010.2
20260904085314 77 137 0.0 0.0 0.00 0.00 0.00 93 1010.4
20260904084809 77 136 0.0 0.0 0.00 0.00 0.00 93 1010.1
20260904084304 77 136 0.0 0.9 0.00 0.00 0.00 94 1010.2
20260904083801 77 136 0.0 0.9 0.00 0.00 0.00 94 1010.1
20260904083257 77 137 0.0 0.0 0.00 0.00 0.00 94 1010.1
20260904082757 77 138 0.0 0.0 0.00 0.00 0.00 94 1010.0
20260904082252 77 137 0.0 0.0 0.00 0.00 0.00 94 1010.0
20260904081747 77 136 0.0 0.9 0.00 0.00 0.00 93 1010.1
20260904081243 78 136 0.0 0.9 0.00 0.00 0.00 93 1009.8
20260904080738 78 137 0.0 0.0 0.00 0.00 0.00 92 1009.7
20260904080234 78 139 0.0 0.9 0.00 0.00 0.00 91 1009.8
20260904075730 78 136 0.0 0.9 0.00 0.00 0.00 91 1009.7
20260904075225 79 134 0.9 1.7 0.00 0.00 0.00 91 1009.7
20260904074724 78 135 0.9 1.7 0.00 0.00 0.00 91 1009.5
20260904074218 78 136 0.9 0.9 0.00 0.00 0.00 91 1009.3
20260904073714 78 136 0.9 0.9 0.00 0.00 0.00 92 1009.3
20260904073210 78 136 0.9 1.7 0.00 0.00 0.00 92 1009.4
20260904072706 78 138 0.0 1.7 0.00 0.00 0.00 93 1009.4
20260904072200 78 135 0.0 0.9 0.00 0.00 0.00 94 1009.4
20260904071656 77 137 0.0 0.9 0.00 0.00 0.00 95 1009.3
20260904071151 77 136 0.0 0.0 0.00 0.00 0.00 97 1009.2
20260904070650 77 137 0.0 0.0 0.00 0.00 0.00 98 1009.5
20260904070149 76 136 0.0 0.0 0.00 0.00 0.00 98 1009.6
20260904065644 76 138 0.0 0.0 0.00 0.00 0.00 98 1009.6
20260904065142 76 136 0.0 0.0 0.00 0.00 0.00 98 1009.6
20260904064637 76 136 0.0 0.0 0.00 0.00 0.00 98 1009.7
20260904064136 77 137 0.0 0.0 0.00 0.00 0.00 98 1010.1
20260904063632 77 137 0.0 0.0 0.00 0.00 0.00 97 1010.0
20260904063128 77 137 0.0 0.0 0.00 0.00 0.00 97 1010.3
20260904062624 77 137 0.0 0.0 0.00 0.00 0.00 97 1010.6
20260904062120 77 138 0.0 0.0 0.00 0.00 0.00 97 1010.5
20260904061615 77 136 0.0 0.0 0.00 0.00 0.00 96 1010.4
20260904061112 77 136 0.0 0.0 0.00 0.00 0.00 96 1010.6
20260904060608 77 136 0.0 0.0 0.00 0.00 0.00 96 1010.6
20260904060104 78 136 0.0 0.0 0.00 0.00 0.00 96 1010.7
20260904055558 78 136 0.0 0.0 0.00 0.00 0.00 95 1010.6
20260904055053 78 138 0.0 0.0 0.00 0.00 0.00 95 1010.8
20260904054549 78 137 0.0 0.0 0.00 0.00 0.00 95 1010.8
20260904054045 78 136 0.0 0.0 0.00 0.00 0.00 95 1010.4
20260904053544 78 137 0.0 0.0 0.00 0.00 0.00 94 1010.5
20260904053040 78 136 0.0 0.0 0.00 0.00 0.00 94 1010.9
20260904052536 79 135 0.0 0.0 0.00 0.00 0.00 93 1010.8
20260904052032 80 135 0.0 0.0 0.00 0.00 0.00 92 1010.6
20260904051528 80 136 0.0 0.0 0.00 0.00 0.00 91 1010.7
20260904051027 80 136 0.0 0.0 0.00 0.00 0.00 89 1010.7
20260904050524 81 136 0.0 0.0 0.00 0.00 0.00 89 1010.6
20260904050019 81 138 0.0 0.9 0.00 0.00 0.00 89 1010.4
20260904045514 81 137 0.0 0.9 0.00 0.00 0.00 89 1010.3
20260904045009 81 135 0.0 0.0 0.00 0.00 0.00 89 1010.4
20260904044505 81 135 0.0 0.9 0.00 0.00 0.00 89 1010.4
20260904044001 81 135 0.0 0.0 0.00 0.00 0.00 89 1010.5
20260904043457 81 136 0.0 0.9 0.00 0.00 0.00 89 1010.1
20260904042952 81 135 0.0 0.0 0.00 0.00 0.00 90 1010.6
20260904042449 81 136 0.0 0.0 0.00 0.00 0.00 91 1010.6
20260904041943 81 137 0.0 0.0 0.00 0.00 0.00 91 1010.5
20260904041440 81 137 0.0 0.0 0.00 0.00 0.00 91 1010.4
20260904040936 81 137 0.0 0.0 0.00 0.00 0.00 91 1010.5
20260904040435 81 137 0.0 0.0 0.00 0.00 0.00 90 1010.6
20260904035932 81 137 0.0 0.0 0.00 0.00 0.00 91 1010.5
20260904035427 81 138 0.0 0.0 0.00 0.00 0.00 90 1010.5
20260904034926 81 138 0.0 0.0 0.00 0.00 0.00 90 1010.7
20260904034422 82 138 0.0 0.0 0.00 0.00 0.00 90 1010.4
20260904033917 82 136 0.0 0.9 0.00 0.00 0.00 90 1010.6
20260904033414 82 137 0.0 0.9 0.00 0.00 0.00 90 1010.4
20260904032910 81 136 0.9 0.9 0.00 0.00 0.00 90 1010.6
20260904032404 81 137 0.0 0.9 0.00 0.00 0.00 90 1010.6
20260904031858 81 137 0.0 0.9 0.00 0.00 0.00 90 1010.5
20260904031354 80 137 0.0 0.9 0.00 0.00 0.00 91 1010.6
20260904030850 80 137 0.0 0.0 0.00 0.00 0.00 91 1010.6
20260904030345 79 138 0.0 0.0 0.00 0.00 0.00 92 1010.8
20260904025841 79 136 0.0 0.0 0.00 0.00 0.00 92 1010.7
20260904025337 79 138 0.0 0.0 0.00 0.00 0.00 92 1010.9
20260904024836 78 137 0.0 0.0 0.00 0.00 0.00 92 1010.7
20260904024331 79 136 0.0 0.0 0.00 0.00 0.00 91 1010.6
20260904023828 79 135 0.9 0.9 0.00 0.00 0.00 90 1010.8
20260904023324 80 136 0.0 0.0 0.00 0.00 0.00 89 1010.7
20260904022823 80 136 0.0 0.0 0.00 0.00 0.00 89 1010.7
20260904022320 80 136 0.9 0.9 0.00 0.00 0.00 88 1010.6
20260904021817 81 135 0.0 0.9 0.00 0.00 0.00 86 1010.4
20260904021316 82 136 0.0 0.0 0.00 0.00 0.00 84 1010.5
20260904020812 82 136 0.0 0.0 0.00 0.00 0.00 83 1010.7
20260904020307 82 136 0.0 0.0 0.00 0.00 0.00 83 1010.7
20260904015805 82 136 0.9 0.9 0.00 0.00 0.00 82 1010.5
20260904015301 82 137 0.0 0.9 0.00 0.00 0.00 82 1010.6
20260904014759 83 137 0.0 0.9 0.00 0.00 0.00 82 1010.3
20260904014254 83 137 0.0 0.9 0.00 0.00 0.00 82 1010.3
20260904013750 83 137 0.9 0.9 0.00 0.00 0.00 81 1010.3
20260904013246 83 137 0.0 0.9 0.00 0.00 0.00 81 1010.2
20260904012742 84 137 0.0 0.9 0.00 0.00 0.00 81 1010.2
20260904012241 84 140 0.0 0.9 0.00 0.00 0.00 81 1010.0
20260904011741 84 150 0.0 0.9 0.00 0.00 0.00 81 1010.0
20260904011236 84 150 0.0 0.0 0.00 0.00 0.00 81 1009.6
20260904010731 84 149 0.0 0.0 0.00 0.00 0.00 81 1009.8
20260904010228 84 148 0.0 0.0 0.00 0.00 0.00 80 1009.2
20260904005727 85 146 0.0 0.0 0.00 0.00 0.00 79 1009.1
20260904005223 86 144 0.0 0.0 0.00 0.00 0.00 77 1009.2
20260904004718 86 145 0.0 0.0 0.00 0.00 0.00 74 1009.3
20260904004214 86 143 0.0 0.0 0.00 0.00 0.00 74 1008.9
20260904003708 87 143 0.0 0.9 0.00 0.00 0.00 74 1008.7
20260904003205 87 143 0.0 0.0 0.00 0.00 0.00 74 1008.9
20260904002700 87 143 0.0 0.0 0.00 0.00 0.00 74 1008.9
20260904002156 87 143 0.0 0.9 0.00 0.00 0.00 73 1008.9
20260904001651 87 143 0.0 0.9 0.00 0.00 0.00 73 1009.0
20260904001150 88 143 0.0 1.7 0.00 0.00 0.00 72 1008.9
20260904000645 88 143 0.0 0.9 0.00 0.00 0.00 71 1008.9
20260904000140 88 143 0.0 0.9 0.00 0.00 0.00 71 1009.0
20260903235640 88 142 0.0 1.7 0.00 0.00 0.00 71 1009.0
20260903235136 88 143 0.0 1.7 0.00 0.00 0.00 71 1009.0
20260903234631 88 143 0.0 0.0 0.00 0.00 0.00 71 1009.1
20260903234127 88 143 0.9 0.9 0.00 0.00 0.00 70 1009.2
20260903233623 89 143 0.0 0.0 0.00 0.00 0.00 70 1009.1
20260903233119 89 143 0.0 0.9 0.00 0.00 0.00 69 1009.1
20260903232613 89 143 0.9 1.7 0.00 0.00 0.00 68 1009.2
20260903232109 89 144 0.0 0.9 0.00 0.00 0.00 67 1009.2
20260903231603 89 145 0.9 1.7 0.00 0.00 0.00 66 1009.4
20260903231103 89 145 0.9 0.9 0.00 0.00 0.00 65 1009.3
20260903230559 90 143 0.9 1.7 0.00 0.00 0.00 64 1009.3
20260903230057 90 142 0.9 1.7 0.00 0.00 0.00 65 1009.5
20260903225554 90 144 0.9 1.7 0.00 0.00 0.00 66 1009.5
20260903225051 90 172 1.7 2.6 0.00 0.00 0.00 65 1009.7
20260903224547 90 146 0.0 2.6 0.00 0.00 0.00 64 1009.3
20260903224043 91 145 0.9 1.7 0.00 0.00 0.00 64 1009.6
20260903223537 92 260 2.6 4.3 0.00 0.00 0.00 62 1009.5
20260903223036 93 147 0.9 1.7 0.00 0.00 0.00 61 1009.2
20260903222531 93 147 1.7 4.3 0.00 0.00 0.00 63 1009.4
20260903222030 94 146 0.9 1.7 0.00 0.00 0.00 62 1009.7
20260903221526 96 147 2.6 2.6 0.00 0.00 0.00 58 1009.8
20260903221022 94 144 0.0 0.9 0.00 0.00 0.00 61 1009.8
20260903220521 93 144 0.0 1.7 0.00 0.00 0.00 63 1009.6
20260903220016 93 144 0.9 2.6 0.00 0.00 0.00 63 1009.6
20260903215510 94 145 0.0 1.7 0.00 0.00 0.00 62 1009.6
20260903215009 94 152 2.6 5.2 0.00 0.00 0.00 59 1009.7
20260903214504 95 132 0.9 1.7 0.00 0.00 0.00 60 1009.8
20260903214004 94 145 0.0 1.7 0.00 0.00 0.00 59 1009.5
20260903213500 94 145 3.5 4.3 0.00 0.00 0.00 59 1009.6
20260903212955 95 149 1.7 5.2 0.00 0.00 0.00 60 1009.8
20260903212451 95 152 0.9 2.6 0.00 0.00 0.00 58 1009.6
20260903211951 95 142 0.9 4.3 0.00 0.00 0.00 58 1009.6
20260903211446 96 147 0.9 0.9 0.00 0.00 0.00 57 1009.6
20260903210943 95 146 0.0 0.9 0.00 0.00 0.00 58 1009.7
20260903210442 95 145 0.9 2.6 0.00 0.00 0.00 60 1009.6
20260903205938 95 223 2.6 4.3 0.00 0.00 0.00 59 1009.8
20260903205432 95 143 0.9 1.7 0.00 0.00 0.00 60 1009.7
20260903204926 95 145 0.9 4.3 0.00 0.00 0.00 59 1009.7
20260903204423 94 147 0.9 2.6 0.00 0.00 0.00 60 1009.7
20260903203918 95 143 0.9 1.7 0.00 0.00 0.00 58 1010.0
20260903203414 95 145 0.0 1.7 0.00 0.00 0.00 58 1009.8
20260903202913 94 143 0.9 0.9 0.00 0.00 0.00 61 1009.9
20260903202410 94 154 1.7 2.6 0.00 0.00 0.00 60 1010.0
20260903201909 94 173 1.7 4.3 0.00 0.00 0.00 60 1010.2
20260903201405 94 143 0.9 4.3 0.00 0.00 0.00 62 1010.1
20260903200904 94 142 0.0 1.7 0.00 0.00 0.00 61 1010.0
20260903200359 94 140 0.9 1.7 0.00 0.00 0.00 62 1010.2
20260903195854 93 142 0.0 1.7 0.00 0.00 0.00 63 1010.3
20260903195350 93 140 1.7 4.3 0.00 0.00 0.00 61 1010.2
20260903194844 92 141 0.0 1.7 0.00 0.00 0.00 64 1010.5
20260903194340 92 140 0.0 4.3 0.00 0.00 0.00 64 1010.3
20260903193836 93 140 1.7 2.6 0.00 0.00 0.00 63 1010.6
20260903193332 91 141 0.9 2.6 0.00 0.00 0.00 63 1010.6
20260903192827 91 140 0.9 1.7 0.00 0.00 0.00 63 1010.8
20260903192322 91 141 0.9 1.7 0.00 0.00 0.00 64 1010.5
20260903191819 90 139 0.9 2.6 0.00 0.00 0.00 65 1010.9
20260903191315 89 136 0.9 4.3 0.00 0.00 0.00 66 1010.9
20260903190814 91 137 2.6 2.6 0.00 0.00 0.00 65 1010.8
20260903190308 90 141 0.9 1.7 0.00 0.00 0.00 67 1010.9
20260903185802 90 138 1.7 5.2 0.00 0.00 0.00 67 1010.9
20260903185257 89 138 0.0 1.7 0.00 0.00 0.00 67 1010.8
20260903184754 88 135 0.0 4.3 0.00 0.00 0.00 73 1010.8
20260903184250 88 139 0.0 1.7 0.00 0.00 0.00 69 1011.2
20260903183744 87 134 0.9 2.6 0.00 0.00 0.00 70 1011.2
20260903183239 87 139 1.7 4.3 0.00 0.00 0.00 70 1011.2
20260903182737 86 131 2.6 4.3 0.00 0.00 0.00 70 1011.3
20260903182233 85 137 0.0 2.6 0.00 0.00 0.00 74 1011.4
20260903181731 87 134 2.6 4.3 0.00 0.00 0.00 71 1011.5
20260903181226 87 127 1.7 2.6 0.00 0.00 0.00 71 1011.5
20260903180722 86 138 1.7 1.7 0.00 0.00 0.00 72 1011.6
20260903180215 86 139 0.9 4.3 0.00 0.00 0.00 73 1011.8
20260903175715 86 134 0.9 1.7 0.00 0.00 0.00 73 1011.6
20260903175209 85 131 3.5 6.1 0.00 0.00 0.00 73 1011.8
20260903174709 84 134 2.6 2.6 0.00 0.00 0.00 75 1011.7
20260903174204 85 114 2.6 4.3 0.00 0.00 0.00 74 1011.7
20260903173659 86 137 0.9 2.6 0.00 0.00 0.00 73 1011.9
20260903173155 85 124 2.6 4.3 0.00 0.00 0.00 72 1011.9
20260903172649 85 142 1.7 2.6 0.00 0.00 0.00 72 1012.1